FW6455 Weather Reports


Display with metric or nautical units.
time (UTC)temp
F
wind
direction
speed
MPH
gust
MPH
rain 1hr
in
rain 24hr
in
rain mn
in
humidity
%
barometer
mb
20260904075540 78 0 0.0 0.0 0.00 0.00 0.00 86 1014.4
20260904075040 78 0 0.0 0.0 0.00 0.00 0.00 86 1014.4
20260904074636 78 0 0.0 0.0 0.00 0.00 0.00 86 1014.2
20260904074038 78 0 0.0 0.0 0.00 0.00 0.00 85 1014.4
20260904073540 78 0 0.0 0.0 0.00 0.00 0.00 85 1014.4
20260904073104 79 0 0.0 0.0 0.00 0.00 0.00 85 1014.5
20260904072539 79 0 0.0 0.0 0.00 0.00 0.00 85 1014.5
20260904072039 79 0 0.0 0.0 0.00 0.00 0.00 85 1014.4
20260904071602 79 0 0.0 0.0 0.00 0.00 0.00 84 1014.4
20260904071037 79 195 0.0 0.0 0.00 0.00 0.00 84 1014.5
20260904070537 79 0 0.0 0.0 0.00 0.00 0.00 84 1014.5
20260904070059 79 0 0.0 0.0 0.00 0.00 0.00 84 1014.5
20260904065540 79 0 0.0 0.0 0.00 0.00 0.00 84 1014.6
20260904065040 79 0 0.0 0.0 0.00 0.00 0.00 84 1014.7
20260904064554 79 0 0.0 0.0 0.00 0.00 0.00 84 1014.7
20260904064040 79 192 0.0 0.0 0.00 0.00 0.00 84 1014.8
20260904063540 79 192 0.0 0.0 0.00 0.00 0.00 83 1014.7
20260904063112 79 0 0.0 1.0 0.00 0.00 0.00 83 1014.8
20260904062543 79 192 0.0 1.0 0.00 0.00 0.00 83 1014.9
20260904062039 79 197 0.0 0.0 0.00 0.00 0.00 83 1014.9
20260904061603 79 0 0.0 0.0 0.00 0.00 0.00 83 1014.8
20260904061037 79 0 0.0 1.0 0.00 0.00 0.00 82 1014.8
20260904060537 79 0 0.0 1.0 0.00 0.00 0.00 82 1014.7
20260904060112 79 0 0.0 0.0 0.00 0.00 0.00 82 1014.7
20260904055540 79 205 0.0 1.0 0.00 0.00 0.00 82 1014.7
20260904055039 79 0 0.0 1.0 0.00 0.00 0.00 81 1014.7
20260904054608 79 0 0.0 1.0 0.00 0.00 0.00 81 1014.7
20260904054040 79 0 0.0 0.0 0.00 0.00 0.00 81 1014.7
20260904053540 79 0 0.0 0.0 0.00 0.00 0.00 81 1014.7
20260904053057 79 0 0.0 0.0 0.00 0.00 0.00 81 1014.7
20260904052540 79 0 0.0 0.0 0.00 0.00 0.00 81 1014.6
20260904052038 79 167 0.0 1.0 0.00 0.00 0.00 81 1014.8
20260904051603 79 0 0.0 1.0 0.00 0.00 0.00 80 1014.7
20260904051039 79 0 0.0 0.0 0.00 0.00 0.00 80 1014.6
20260904050539 79 0 0.0 1.0 0.00 0.00 0.00 80 1014.7
20260904050057 79 0 0.0 1.0 0.00 0.00 0.00 80 1014.8
20260904045540 79 176 0.0 1.0 0.00 0.00 0.00 80 1014.7
20260904045042 79 0 0.0 0.0 0.00 0.00 0.00 80 1014.8
20260904044607 79 0 0.0 1.0 0.00 0.00 0.00 80 1014.9
20260904044038 79 0 0.0 1.0 0.00 0.00 0.00 80 1014.9
20260904043540 79 176 0.0 1.0 0.00 0.00 0.00 79 1014.8
20260904043100 79 0 0.0 3.0 0.00 0.00 0.00 79 1014.9
20260904042537 79 0 0.0 3.0 0.00 0.00 0.00 79 1015.0
20260904042041 79 221 0.0 3.0 0.00 0.00 0.00 78 1014.9
20260904041609 79 201 0.0 1.0 0.00 0.00 0.00 78 1014.9
20260904041037 79 0 0.0 1.0 0.00 0.00 0.00 78 1015.1
20260904040540 79 0 0.0 1.0 0.00 0.00 0.00 77 1015.1
20260904040104 79 0 0.0 1.0 0.00 0.00 0.00 77 1015.0
20260904035540 79 191 0.0 1.0 0.00 0.00 0.00 77 1014.9
20260904035040 79 0 0.0 1.0 0.00 0.00 0.00 76 1015.1
20260904034612 79 0 0.0 1.0 0.00 0.00 0.00 76 1015.0
20260904034037 79 0 0.0 1.0 0.00 0.00 0.00 75 1015.0
20260904033537 79 0 0.0 1.0 0.00 0.00 0.00 75 1015.1
20260904033105 79 0 0.0 1.0 0.00 0.00 0.00 74 1015.1
20260904032540 79 0 0.0 1.0 0.00 0.00 0.00 74 1015.1
20260904032036 79 109 0.0 2.0 0.00 0.00 0.00 74 1015.1
20260904031604 79 0 0.0 2.0 0.00 0.00 0.00 73 1015.1
20260904031037 79 0 0.0 2.0 0.00 0.00 0.00 73 1015.0
20260904030544 80 0 0.0 2.0 0.00 0.00 0.00 72 1014.9
20260904025543 80 0 0.0 1.0 0.00 0.00 0.00 72 1014.9
20260904025037 80 0 0.0 1.0 0.00 0.00 0.00 72 1014.9
20260904024602 80 91 0.0 1.0 0.00 0.00 0.00 72 1014.8
20260904024037 80 91 0.0 2.0 0.00 0.00 0.00 72 1014.6
20260904023537 80 0 0.0 3.0 0.00 0.00 0.00 71 1014.6
20260904023108 80 110 0.0 4.0 0.00 0.00 0.00 71 1014.5
20260904022541 80 0 0.0 4.0 0.00 0.00 0.00 71 1014.4
20260904022041 81 0 0.0 3.0 0.00 0.00 0.00 71 1014.2
20260904021601 81 0 0.0 3.0 0.00 0.00 0.00 71 1014.1
20260904021039 81 193 0.0 3.0 0.00 0.00 0.00 71 1014.1
20260904020539 81 0 0.0 3.0 0.00 0.00 0.00 71 1014.2
20260904020107 81 120 1.0 3.0 0.00 0.00 0.00 71 1014.1
20260904015539 81 184 0.0 3.0 0.00 0.00 0.00 72 1014.1
20260904015040 81 134 0.0 3.0 0.00 0.00 0.00 73 1014.1
20260904014608 82 120 0.0 2.0 0.00 0.00 0.00 73 1013.9
20260904014037 82 0 0.0 3.0 0.00 0.00 0.00 73 1014.0
20260904013540 82 104 0.0 3.0 0.00 0.00 0.00 73 1013.8
20260904013059 82 0 0.0 1.0 0.00 0.00 0.00 73 1013.8
20260904012542 82 0 0.0 4.0 0.00 0.00 0.00 73 1013.7
20260904012040 82 216 0.0 4.0 0.00 0.00 0.00 72 1013.6
20260904011600 82 124 1.0 4.0 0.00 0.00 0.00 72 1013.5
20260904011041 83 186 0.0 1.0 0.00 0.00 0.00 72 1013.7
20260904010539 83 0 0.0 1.0 0.00 0.00 0.00 71 1013.7
20260904010105 83 0 0.0 3.0 0.00 0.00 0.00 71 1013.5
20260904005539 83 173 0.0 3.0 0.00 0.00 0.00 70 1013.6
20260904005037 84 109 1.0 3.0 0.00 0.00 0.00 70 1013.7
20260904004605 84 114 0.0 2.0 0.00 0.00 0.00 71 1013.7
20260904004042 84 194 0.0 4.0 0.00 0.00 0.00 70 1013.6
20260904003539 84 200 0.0 4.0 0.00 0.00 0.00 70 1013.5
20260904003101 85 189 1.0 4.0 0.00 0.00 0.00 69 1013.5
20260904002540 85 203 1.0 4.0 0.00 0.00 0.00 69 1013.6
20260904002042 85 129 1.0 4.0 0.00 0.00 0.00 70 1013.6
20260904001600 85 167 1.0 4.0 0.00 0.00 0.00 71 1013.5
20260904001039 86 165 2.0 4.0 0.00 0.00 0.00 71 1013.4
20260904000542 86 102 1.0 4.0 0.00 0.00 0.00 69 1013.3
20260904000134 86 141 1.0 7.0 0.00 0.00 0.00 69 1013.3
20260903235539 86 136 2.0 7.0 0.00 0.00 0.00 69 1013.2
20260903235039 87 124 2.0 6.0 0.00 0.00 0.00 68 1013.1
20260903234603 87 119 1.0 5.0 0.00 0.00 0.00 66 1013.1
20260903234040 88 96 1.0 3.0 0.00 0.00 0.00 65 1013.1
20260903233541 88 214 1.0 3.0 0.00 0.00 0.00 64 1013.0
20260903233103 88 203 1.0 5.0 0.00 0.00 0.00 63 1013.0
20260903232537 88 140 1.0 5.0 0.00 0.00 0.00 62 1013.0
20260903232037 88 130 2.0 5.0 0.00 0.00 0.00 62 1013.0
20260903231602 89 121 0.0 4.0 0.00 0.00 0.00 63 1013.0
20260903231039 89 124 1.0 5.0 0.00 0.00 0.00 63 1013.0
20260903230539 89 194 1.0 6.0 0.00 0.00 0.00 62 1013.1
20260903230108 89 158 1.0 6.0 0.00 0.00 0.00 63 1013.0
20260903225540 89 44 0.0 6.0 0.00 0.00 0.00 62 1012.9
20260903225037 89 124 2.0 6.0 0.00 0.00 0.00 62 1012.9
20260903224611 89 113 1.0 6.0 0.00 0.00 0.00 62 1012.8
20260903224037 90 172 1.0 6.0 0.00 0.00 0.00 62 1012.9
20260903223540 89 199 1.0 6.0 0.00 0.00 0.00 62 1012.9
20260903223104 90 162 2.0 6.0 0.00 0.00 0.00 63 1012.9
20260903222537 90 101 1.0 4.0 0.00 0.00 0.00 63 1012.9
20260903222041 90 229 1.0 4.0 0.00 0.00 0.00 63 1012.9
20260903221600 90 149 1.0 3.0 0.00 0.00 0.00 63 1012.8
20260903221040 90 214 1.0 5.0 0.00 0.00 0.00 63 1013.0
20260903220539 90 200 1.0 5.0 0.00 0.00 0.00 63 1013.0
20260903220122 90 144 1.0 6.0 0.00 0.00 0.00 63 1013.0
20260903215539 90 68 2.0 6.0 0.00 0.00 0.00 63 1012.9
20260903215037 90 186 1.0 4.0 0.00 0.00 0.00 62 1012.9
20260903214556 90 197 1.0 3.0 0.00 0.00 0.00 63 1013.1
20260903214040 90 195 1.0 3.0 0.00 0.00 0.00 63 1013.2
20260903213539 90 200 1.0 4.0 0.00 0.00 0.00 63 1013.1
20260903213105 89 197 2.0 4.0 0.00 0.00 0.00 63 1013.3
20260903212537 90 119 1.0 4.0 0.00 0.00 0.00 64 1013.3
20260903212040 90 134 1.0 4.0 0.00 0.00 0.00 64 1013.3
20260903211620 90 174 0.0 4.0 0.00 0.00 0.00 63 1013.4
20260903211041 90 165 1.0 4.0 0.00 0.00 0.00 64 1013.4
20260903210538 90 0 1.0 4.0 0.00 0.00 0.00 64 1013.4
20260903210103 90 213 1.0 3.0 0.00 0.00 0.00 63 1013.5
20260903205540 90 163 1.0 4.0 0.00 0.00 0.00 64 1013.5
20260903205039 90 207 1.0 4.0 0.00 0.00 0.00 63 1013.7
20260903204554 90 169 2.0 4.0 0.00 0.00 0.00 64 1013.7
20260903204039 90 117 2.0 4.0 0.00 0.00 0.00 64 1013.7
20260903203537 89 122 1.0 3.0 0.00 0.00 0.00 66 1013.7
20260903203103 88 170 1.0 3.0 0.00 0.00 0.00 66 1013.8
20260903202540 88 185 1.0 4.0 0.00 0.00 0.00 66 1013.8
20260903202040 88 182 1.0 4.0 0.00 0.00 0.00 66 1013.8
20260903201602 88 194 2.0 4.0 0.00 0.00 0.00 66 1014.0
20260903201038 88 137 2.0 4.0 0.00 0.00 0.00 66 1014.0
20260903200538 88 93 2.0 5.0 0.00 0.00 0.00 66 1013.8
20260903200100 88 100 2.0 5.0 0.00 0.00 0.00 67 1013.8
20260903195538 88 131 2.0 5.0 0.00 0.00 0.00 66 1013.9
20260903195039 89 115 2.0 4.0 0.00 0.00 0.00 66 1014.0
20260903194605 89 218 2.0 5.0 0.00 0.00 0.00 66 1014.0
20260903194041 88 193 2.0 5.0 0.00 0.00 0.00 66 1014.1
20260903193539 88 198 2.0 5.0 0.00 0.00 0.00 67 1014.1
20260903193109 88 151 1.0 5.0 0.00 0.00 0.00 67 1014.0
20260903192539 88 153 2.0 5.0 0.00 0.00 0.00 67 1014.1
20260903192038 88 193 1.0 5.0 0.00 0.00 0.00 67 1014.1
20260903191558 89 212 2.0 6.0 0.00 0.00 0.00 66 1014.3
20260903191038 88 153 1.0 6.0 0.00 0.00 0.00 68 1014.4
20260903190542 88 159 2.0 6.0 0.00 0.00 0.00 67 1014.5
20260903190100 88 181 3.0 6.0 0.00 0.00 0.00 67 1014.6
20260903185538 88 167 1.0 4.0 0.00 0.00 0.00 68 1014.6
20260903185040 88 189 2.0 5.0 0.00 0.00 0.00 68 1014.8
20260903184607 88 172 2.0 5.0 0.00 0.00 0.00 69 1014.8
20260903184038 87 204 2.0 5.0 0.00 0.00 0.00 70 1014.9
20260903183537 86 202 2.0 5.0 0.00 0.00 0.00 71 1015.0
20260903183101 86 150 2.0 5.0 0.00 0.00 0.00 71 1015.0
20260903182540 86 148 2.0 5.0 0.00 0.00 0.00 72 1015.1
20260903182039 86 149 3.0 5.0 0.00 0.00 0.00 71 1015.2
20260903181559 85 179 2.0 7.0 0.00 0.00 0.00 72 1015.2
20260903181039 85 200 2.0 7.0 0.00 0.00 0.00 73 1015.3
20260903180537 85 212 2.0 7.0 0.00 0.00 0.00 73 1015.4
20260903180108 84 156 2.0 6.0 0.00 0.00 0.00 74 1015.4
20260903175539 84 182 2.0 6.0 0.00 0.00 0.00 74 1015.6
20260903175037 84 146 2.0 8.0 0.00 0.00 0.00 74 1015.6
20260903174614 84 132 2.0 9.0 0.00 0.00 0.00 74 1015.5
20260903174042 84 173 3.0 9.0 0.00 0.00 0.00 74 1015.6
20260903173536 84 188 3.0 8.0 0.00 0.00 0.00 75 1015.7
20260903173119 84 124 2.0 8.0 0.00 0.00 0.00 75 1015.9
20260903172537 83 179 4.0 7.0 0.00 0.00 0.00 75 1015.9
20260903172043 83 191 2.0 7.0 0.00 0.00 0.00 75 1015.9
20260903171602 83 176 2.0 8.0 0.00 0.00 0.00 76 1016.1
20260903171036 83 148 2.0 8.0 0.00 0.00 0.00 76 1016.0
20260903170542 83 161 3.0 8.0 0.00 0.00 0.00 76 1015.9
20260903170110 83 186 1.0 7.0 0.00 0.00 0.00 76 1015.9
20260903165540 83 166 2.0 7.0 0.00 0.00 0.00 77 1015.9
20260903165042 83 161 3.0 7.0 0.00 0.00 0.00 77 1016.0
20260903164607 83 165 2.0 6.0 0.00 0.00 0.00 77 1016.1
20260903164037 84 195 3.0 6.0 0.00 0.00 0.00 77 1015.9
20260903163536 84 159 2.0 5.0 0.00 0.00 0.00 77 1015.9
20260903163108 84 190 2.0 4.0 0.00 0.00 0.00 77 1015.8
20260903162537 85 201 1.0 6.0 0.00 0.00 0.00 77 1015.8
20260903162037 84 183 1.0 6.0 0.00 0.00 0.00 78 1015.9
20260903161600 84 186 1.0 3.0 0.00 0.00 0.00 79 1016.0
20260903161039 83 189 1.0 3.0 0.00 0.00 0.00 79 1015.8
20260903160539 83 202 1.0 6.0 0.00 0.00 0.00 79 1015.9
20260903160059 83 169 2.0 6.0 0.00 0.00 0.00 80 1015.8
20260903155540 83 150 1.0 5.0 0.00 0.00 0.00 80 1015.8
20260903155039 83 143 1.0 3.0 0.00 0.00 0.00 80 1015.9
20260903154603 82 216 1.0 3.0 0.00 0.00 0.00 81 1015.9
20260903154039 82 173 1.0 3.0 0.00 0.00 0.00 81 1015.8
20260903153536 82 188 1.0 3.0 0.00 0.00 0.00 82 1015.7
20260903153102 82 167 1.0 3.0 0.00 0.00 0.00 82 1015.7
20260903152538 82 205 1.0 3.0 0.00 0.00 0.00 82 1015.7
20260903152037 82 192 1.0 3.0 0.00 0.00 0.00 82 1015.6
20260903151600 82 0 0.0 3.0 0.00 0.00 0.00 83 1015.7
20260903151036 82 195 0.0 3.0 0.00 0.00 0.00 83 1015.5
20260903150537 82 177 1.0 3.0 0.00 0.00 0.00 83 1015.5
20260903150113 82 153 0.0 2.0 0.00 0.00 0.00 84 1015.6
20260903145537 82 197 0.0 2.0 0.00 0.00 0.00 84 1015.5
20260903145040 81 203 0.0 2.0 0.00 0.00 0.00 84 1015.6
20260903144601 81 165 0.0 2.0 0.00 0.00 0.00 84 1015.6
20260903144037 81 0 0.0 2.0 0.00 0.00 0.00 85 1015.6
20260903143537 81 0 0.0 2.0 0.00 0.00 0.00 85 1015.6
20260903143102 81 0 0.0 2.0 0.00 0.00 0.00 85 1015.6
20260903142538 81 0 0.0 2.0 0.00 0.00 0.00 85 1015.6
20260903142038 80 0 0.0 4.0 0.00 0.00 0.00 85 1015.7
20260903141558 80 0 0.0 4.0 0.00 0.00 0.00 85 1015.8
20260903141037 80 0 0.0 4.0 0.00 0.00 0.00 85 1015.9
20260903140537 80 127 1.0 4.0 0.00 0.00 0.00 85 1015.6
20260903140059 80 124 0.0 3.0 0.00 0.00 0.00 85 1015.6
20260903135537 80 130 0.0 2.0 0.00 0.00 0.00 85 1015.6
20260903135037 80 0 0.0 2.0 0.00 0.00 0.00 86 1015.5
20260903134603 79 0 0.0 2.0 0.00 0.00 0.00 86 1015.6
20260903134038 79 0 0.0 2.0 0.00 0.00 0.00 87 1015.5
20260903133541 79 0 0.0 3.0 0.00 0.00 0.00 87 1015.3
20260903133102 79 181 0.0 4.0 0.00 0.00 0.00 87 1015.4
20260903132537 78 208 1.0 4.0 0.00 0.00 0.00 87 1015.4
20260903132037 78 146 0.0 2.0 0.00 0.00 0.00 87 1015.4
20260903131602 78 0 0.0 3.0 0.00 0.00 0.00 87 1015.4
20260903131040 78 86 0.0 3.0 0.00 0.00 0.00 87 1015.3
20260903130541 78 0 0.0 2.0 0.00 0.00 0.00 87 1015.2
20260903130115 78 110 0.0 2.0 0.00 0.00 0.00 87 1015.0
20260903125537 78 116 0.0 2.0 0.00 0.00 0.00 87 1015.0
20260903125037 78 0 0.0 1.0 0.00 0.00 0.00 87 1014.9
20260903124618 78 0 0.0 1.0 0.00 0.00 0.00 87 1014.9
20260903124036 78 139 0.0 1.0 0.00 0.00 0.00 87 1015.0
20260903123538 78 0 0.0 1.0 0.00 0.00 0.00 87 1015.0
20260903123059 78 0 0.0 1.0 0.00 0.00 0.00 87 1014.9
20260903122541 78 0 0.0 2.0 0.00 0.00 0.00 87 1014.8
20260903122036 78 0 0.0 2.0 0.00 0.00 0.00 87 1014.8
20260903121559 78 0 0.0 2.0 0.00 0.00 0.00 87 1014.6
20260903121039 78 0 0.0 2.0 0.00 0.00 0.00 87 1014.6
20260903120539 78 70 0.0 3.0 0.00 0.00 0.00 87 1014.7
20260903120107 78 124 0.0 3.0 0.00 0.00 0.00 87 1014.6
20260903115538 78 0 0.0 2.0 0.00 0.00 0.00 87 1014.6
20260903115036 78 0 0.0 2.0 0.00 0.00 0.00 86 1014.6
20260903114607 78 105 0.0 2.0 0.00 0.00 0.00 86 1014.5
20260903114038 78 99 0.0 2.0 0.00 0.00 0.00 86 1014.6
20260903113539 78 0 0.0 0.0 0.00 0.00 0.00 86 1014.7
20260903113108 78 0 0.0 0.0 0.00 0.00 0.00 85 1014.5
20260903112540 78 0 0.0 0.0 0.00 0.00 0.00 85 1014.4
20260903112037 78 0 0.0 0.0 0.00 0.00 0.00 85 1014.5
20260903111624 78 0 0.0 0.0 0.00 0.00 0.00 85 1014.6
20260903111036 78 0 0.0 0.0 0.00 0.00 0.00 85 1014.6
20260903110535 78 0 0.0 0.0 0.00 0.00 0.00 85 1014.7
20260903110112 78 0 0.0 0.0 0.00 0.00 0.00 85 1014.6
20260903105540 78 0 0.0 0.0 0.00 0.00 0.00 84 1014.5
20260903105041 78 0 0.0 2.0 0.00 0.00 0.00 84 1014.3
20260903104631 78 0 0.0 2.0 0.00 0.00 0.00 84 1014.3
20260903104038 78 121 0.0 1.0 0.00 0.00 0.00 84 1014.2
20260903103542 78 0 0.0 1.0 0.00 0.00 0.00 84 1014.1
20260903103100 78 182 0.0 2.0 0.00 0.00 0.00 84 1014.1
20260903102540 78 0 0.0 2.0 0.00 0.00 0.00 84 1014.1
20260903102039 78 151 0.0 0.0 0.00 0.00 0.00 83 1014.1
20260903101556 78 0 0.0 1.0 0.00 0.00 0.00 83 1014.1
20260903101041 78 0 0.0 1.0 0.00 0.00 0.00 83 1014.2
20260903100539 78 0 0.0 2.0 0.00 0.00 0.00 83 1014.2
20260903100103 78 0 0.0 2.0 0.00 0.00 0.00 83 1014.3
20260903095540 78 0 0.0 2.0 0.00 0.00 0.00 83 1014.4
20260903095055 78 102 0.0 1.0 0.00 0.00 0.00 83 1014.4
20260903094608 78 0 0.0 1.0 0.00 0.00 0.00 83 1014.4
20260903094039 78 0 0.0 1.0 0.00 0.00 0.00 83 1014.5
20260903093542 78 0 0.0 1.0 0.00 0.00 0.00 83 1014.5
20260903093100 78 0 0.0 0.0 0.00 0.00 0.00 83 1014.4
20260903092536 78 0 0.0 1.0 0.00 0.00 0.00 83 1014.3
20260903092039 78 0 0.0 1.0 0.00 0.00 0.00 83 1014.4
20260903091605 78 114 0.0 1.0 0.00 0.00 0.00 83 1014.4
20260903091039 78 122 0.0 0.0 0.00 0.00 0.00 83 1014.5
20260903090540 77 0 0.0 0.0 0.00 0.00 0.00 83 1014.3
20260903090104 77 0 0.0 0.0 0.00 0.00 0.00 82 1014.2
20260903085538 77 0 0.0 0.0 0.00 0.00 0.00 82 1014.2
20260903085042 78 0 0.0 0.0 0.00 0.00 0.00 82 1014.0
20260903084601 78 0 0.0 0.0 0.00 0.00 0.00 82 1014.0
20260903084041 78 0 0.0 0.0 0.00 0.00 0.00 82 1013.9
20260903083544 78 0 0.0 0.0 0.00 0.00 0.00 82 1014.0
20260903083057 78 0 0.0 0.0 0.00 0.00 0.00 81 1014.0
20260903082537 78 0 0.0 0.0 0.00 0.00 0.00 81 1014.0
20260903082039 78 0 0.0 0.0 0.00 0.00 0.00 81 1013.9
20260903081603 78 0 0.0 0.0 0.00 0.00 0.00 81 1014.1
20260903081035 79 0 0.0 0.0 0.00 0.00 0.00 80 1014.0
20260903080538 79 0 0.0 0.0 0.00 0.00 0.00 80 1014.1
20260903080059 79 0 0.0 0.0 0.00 0.00 0.00 80 1014.2